Погода в Плотах

Польша     53°48′16″N   15°15′55″E
темп.,
°C
ветер,
м/с
пор.,
м/с
влажн.,
%
обл.,
%
осадки,
мм/ч
давл.,
гПа
погр.,
м
2 марта, вт
вт201:00+2зюз34930 0.0 103486
04:00+1зюз34930 0.0 103380
07:00+1зюз34930 0.0 103378
10:00+5з46790 0.0 1034295
13:00+9зсз35580 0.0 1034425
16:00+9сз34610 0.0 1032400
19:00+4ссз22790 0.0 103322
22:00+2св01820 0.0 103222
3 марта, ср
ср301:00+2ююз22820 0.0 103322
04:00+1ююз22810 0.0 103022
07:00+1ююз23880 0.0 102928
10:00+7ююз34680 0.0 1028255
13:00+11ююз35590 0.0 1026466
16:00+11юз36670 0.0 1023646
19:00+6юз47840 0.0 1021113
22:00+5зюз410910 0.0 1019216
4 марта, чт
чт401:00+4зюз49950 0.0 1017223
04:00+2з410965 0.0 1015304
07:00+1зюз4109723 0.0 1014354
10:00+3зсз578575 0.0 1013637
13:00+3з588388 0.1 1013727
16:00+3сз4686100 0.1 1011584
19:00+1св71095100 0.3 1013622
22:000св6108597 0.1 1015822
5 марта, пт
пт501:00−1с4108066 0.1 1017310
04:00−1с23760 0.0 101892
07:00−1сз37725 0.0 1020222
10:00+3ссз564963 0.3 10211379
13:00+4ссз674548 0.5 10221671
16:00+3сз6105333 0.2 10221625
19:000сз5106849 0.3 1024321
22:00−1сз366767 0.2 1026118
6 марта, сб
сб601:00−2с126533 0.2 102722
04:00−2зюз23620 0.0 102749
07:00−1з497742 0.0 1028301
10:00+2з584565 0.0 1027805
13:00+4зюз8114969 0.0 10251409
16:00+2з71295100 0.5 1023816
19:00+3з71484100 0.6 1022865
22:00+3з81485100 0.1 1021817